Location: Peebles
(55.6412°N, 3.1714°W)
Time: 15:01:25
(UTC+01:00)

deb Agena D - Pass Details

Date: 24 September 2024
Orbit: 793 x 976 km, 99.8° (Epoch: 03 October)

Event Time Altitude Azimuth Distance (km) Brightness Sun altitude
Rises 05:33:22 0° 15° (NNE) 3,462 9.9 -13.2°
Reaches altitude 10° 05:36:08 10° 2° (N) 2,551 9.0 -12.8°
Maximum altitude 05:40:32 24° 311° (NW) 1,800 7.6 -12.2°
Enters shadow 05:43:56 14° 269° (W) 2,318 7.9 -11.8°
